EW8754 Weather Reports


Display with metric or nautical units.
time (UTC)temp
F
wind
direction
speed
MPH
gust
MPH
rain 1hr
in
rain 24hr
in
rain mn
in
humidity
%
barometer
mb
20260507181611 62 359 6.0 17.0 0.00 0.24 0.13 36 1004.0
20260507181356 62 92 4.0 13.0 0.00 0.24 0.13 36 1004.2
20260507181119 62 19 6.0 17.0 0.00 0.24 0.13 34 1004.1
20260507180728 62 59 4.0 12.0 0.00 0.24 0.13 36 1004.1
20260507180227 63 37 4.0 13.0 0.00 0.24 0.13 35 1004.2
20260507175336 62 14 4.0 12.0 0.00 0.24 0.13 35 1004.2
20260507175100 62 14 4.0 12.0 0.00 0.24 0.13 35 1004.2
20260507174623 62 130 4.0 14.0 0.00 0.24 0.13 37 1004.2
20260507174554 62 37 4.0 14.0 0.00 0.24 0.13 38 1004.3
20260507174107 62 130 4.0 14.0 0.00 0.24 0.13 37 1004.2
20260507173603 62 82 4.0 14.0 0.00 0.24 0.13 37 1004.1
20260507173052 62 116 4.0 14.0 0.00 0.24 0.13 35 1004.3
20260507172557 62 102 3.0 12.0 0.00 0.24 0.13 35 1004.3
20260507172050 62 70 4.0 20.0 0.00 0.24 0.13 37 1004.2
20260507171741 62 24 6.0 20.0 0.00 0.24 0.13 37 1004.4
20260507171606 61 28 5.0 20.0 0.00 0.24 0.13 39 1004.3
20260507170613 61 22 5.0 20.0 0.00 0.24 0.13 38 1004.5
20260507170159 61 149 4.0 12.0 0.00 0.24 0.13 40 1004.6
20260507165616 61 65 4.0 12.0 0.00 0.24 0.13 41 1004.6
20260507164714 61 23 5.0 17.0 0.00 0.24 0.13 45 1004.7
20260507164556 61 43 4.0 17.0 0.00 0.24 0.13 42 1004.7
20260507163534 60 21 5.0 17.0 0.00 0.24 0.13 42 1004.9
20260507163020 60 26 3.0 9.0 0.00 0.24 0.13 41 1004.8
20260507162522 61 33 3.0 9.0 0.00 0.24 0.13 43 1004.9
20260507162018 60 27 3.0 9.0 0.00 0.24 0.13 42 1004.9
20260507161526 60 39 3.0 9.0 0.00 0.24 0.13 44 1005.0
20260507161248 60 28 4.0 9.0 0.00 0.24 0.13 42 1005.0
20260507160515 60 3 4.0 9.0 0.00 0.24 0.13 44 1005.1
20260507160009 60 16 4.0 15.0 0.00 0.24 0.13 45 1005.0
20260507155510 60 25 4.0 15.0 0.00 0.24 0.13 43 1005.2
20260507155007 59 28 4.0 15.0 0.00 0.24 0.13 46 1005.1
20260507154513 59 355 6.0 15.0 0.00 0.24 0.13 45 1005.1
20260507154015 59 43 6.0 13.0 0.00 0.24 0.13 42 1005.2
20260507153512 59 29 4.0 12.0 0.00 0.24 0.13 43 1005.2
20260507153023 59 60 4.0 13.0 0.00 0.24 0.13 48 1005.2
20260507152514 59 42 5.0 13.0 0.00 0.24 0.13 49 1005.3
20260507152047 58 2 6.0 12.0 0.00 0.24 0.13 49 1005.4
20260507152008 58 82 5.0 13.0 0.00 0.24 0.13 50 1005.2
20260507151603 58 56 5.0 13.0 0.00 0.24 0.13 53 1005.4
20260507150730 58 65 4.0 12.0 0.00 0.24 0.13 56 1005.4
20260507145959 57 40 4.0 12.0 0.00 0.24 0.13 61 1005.4
20260507145517 57 68 5.0 12.0 0.00 0.24 0.13 59 1005.4
20260507145008 56 130 4.0 12.0 0.00 0.24 0.13 60 1005.4
20260507144719 55 87 5.0 12.0 0.00 0.24 0.13 64 1005.5
20260507144521 56 167 5.0 12.0 0.00 0.24 0.13 63 1005.5
20260507143710 55 115 5.0 12.0 0.00 0.24 0.13 68 1005.6
20260507143453 55 78 4.0 12.0 0.00 0.24 0.13 65 1005.6
20260507142448 55 116 5.0 12.0 0.00 0.24 0.13 66 1005.7
20260507141942 55 82 4.0 11.0 0.00 0.24 0.13 68 1005.8
20260507141658 55 76 4.0 9.0 0.00 0.24 0.13 68 1005.7
20260507140936 55 59 4.0 9.0 0.00 0.24 0.13 69 1005.7
20260507140438 54 51 3.0 11.0 0.00 0.24 0.13 70 1005.7
20260507135932 54 74 3.0 11.0 0.00 0.24 0.13 71 1005.7
20260507135437 54 353 3.0 11.0 0.00 0.24 0.13 72 1005.6
20260507134943 54 27 4.0 11.0 0.00 0.24 0.13 72 1005.6
20260507134440 54 92 4.0 10.0 0.00 0.24 0.13 74 1005.6
20260507133938 53 352 3.0 10.0 0.00 0.24 0.13 75 1005.6
20260507133913 53 82 3.0 10.0 0.00 0.24 0.13 75 1005.7
20260507132922 53 32 3.0 8.0 0.00 0.24 0.13 77 1005.7
20260507132419 52 258 3.0 14.0 0.00 0.24 0.13 78 1005.7
20260507131955 52 9 3.0 14.0 0.00 0.24 0.13 79 1005.8
20260507131632 51 71 5.0 14.0 0.00 0.24 0.13 79 1005.7
20260507131153 51 75 4.0 13.0 0.00 0.24 0.13 83 1005.8
20260507130951 51 57 5.0 14.0 0.00 0.24 0.13 80 1005.8
20260507125923 50 33 3.0 11.0 0.00 0.24 0.13 86 1005.8
20260507125426 50 82 3.0 11.0 0.00 0.24 0.13 88 1005.8
20260507124924 50 128 3.0 11.0 0.00 0.24 0.13 91 1005.9
20260507124420 49 70 3.0 11.0 0.00 0.24 0.13 92 1005.8
20260507123919 49 92 2.0 9.0 0.00 0.24 0.13 92 1005.8
20260507123443 49 82 3.0 9.0 0.00 0.24 0.13 92 1005.9
20260507122933 49 2 1.0 5.0 0.00 0.24 0.13 93 1005.9
20260507122404 49 104 1.0 4.0 0.00 0.24 0.13 94 1005.9
20260507122132 48 82 1.0 6.0 0.00 0.24 0.13 93 1006.0
20260507121611 48 87 2.0 6.0 0.00 0.24 0.13 93 1006.0
20260507121350 48 87 2.0 6.0 0.00 0.24 0.13 93 1006.0
20260507120851 48 58 2.0 6.0 0.00 0.24 0.13 93 1005.9
20260507120356 48 71 1.0 6.0 0.00 0.24 0.13 93 1005.9
20260507120139 48 50 1.0 4.0 0.00 0.24 0.13 94 1005.8
20260507115337 48 54 1.0 4.0 0.00 0.24 0.13 94 1005.8
20260507115100 48 52 2.0 5.0 0.00 0.24 0.13 93 1005.6
20260507114337 48 69 2.0 5.0 0.00 0.24 0.13 93 1005.7
20260507113836 48 92 1.0 3.0 0.00 0.24 0.13 93 1005.7
20260507113346 48 92 1.0 3.0 0.00 0.24 0.13 93 1005.8
20260507113158 48 106 1.0 3.0 0.00 0.24 0.13 93 1005.6
20260507113132 48 45 1.0 2.0 0.00 0.24 0.13 93 1005.7
20260507112916 48 104 1.0 3.0 0.00 0.24 0.13 93 1005.7
20260507111800 48 62 0.0 2.0 0.00 0.24 0.13 93 1005.6
20260507111421 48 45 1.0 2.0 0.00 0.24 0.13 93 1005.6
20260507110325 48 65 0.0 1.0 0.00 0.24 0.13 93 1005.5
20260507105832 48 65 1.0 4.0 0.00 0.24 0.13 93 1005.6
20260507105600 48 65 1.0 4.0 0.00 0.24 0.13 93 1005.4
20260507105127 47 281 0.0 0.0 0.02 0.24 0.13 93 1005.6
20260507104847 48 52 1.0 4.0 0.00 0.24 0.13 93 1005.2
20260507104718 47 281 0.0 2.0 0.03 0.24 0.13 93 1005.7
20260507104704 48 82 1.0 4.0 0.01 0.24 0.13 93 1005.1
20260507104031 48 100 0.0 3.0 0.01 0.24 0.13 93 1005.3
20260507103429 48 281 0.0 0.0 0.01 0.24 0.13 93 1005.4
20260507102435 47 281 0.0 0.0 0.02 0.24 0.13 93 1005.6
20260507101326 47 34 0.0 2.0 0.04 0.24 0.13 93 1005.4
20260507100813 47 34 0.0 2.0 0.04 0.24 0.13 93 1005.3
20260507100317 47 35 0.0 2.0 0.05 0.24 0.13 92 1005.1
20260507100034 47 29 0.0 2.0 0.05 0.24 0.13 92 1005.2
20260507095259 47 75 0.0 3.0 0.06 0.24 0.13 92 1005.2
20260507095033 47 77 0.0 3.0 0.07 0.24 0.12 92 1005.2
20260507094304 47 77 1.0 6.0 0.07 0.23 0.12 92 1004.9
20260507093806 47 77 1.0 6.0 0.08 0.23 0.12 92 1004.9
20260507093303 47 64 1.0 7.0 0.09 0.23 0.11 92 1004.8
20260507092800 47 75 2.0 7.0 0.08 0.22 0.11 92 1004.9
20260507092306 47 104 2.0 6.0 0.08 0.22 0.11 92 1004.8
20260507091748 48 77 2.0 10.0 0.07 0.21 0.09 91 1004.9
20260507091254 48 357 2.0 10.0 0.06 0.20 0.09 91 1004.8
20260507090747 48 51 3.0 11.0 0.07 0.20 0.09 91 1004.8
20260507090341 48 99 3.0 11.0 0.06 0.19 0.08 91 1004.7
20260507085745 48 71 3.0 11.0 0.07 0.19 0.07 91 1004.9
20260507085426 48 92 3.0 11.0 0.06 0.18 0.07 90 1005.2
20260507084838 48 71 3.0 8.0 0.05 0.17 0.05 90 1005.2
20260507084038 48 77 2.0 6.0 0.04 0.15 0.04 89 1005.2
20260507083425 48 71 2.0 6.0 0.03 0.14 0.03 89 1005.2
20260507083319 48 92 2.0 5.0 0.03 0.14 0.03 89 1005.2
20260507082408 48 87 2.0 6.0 0.03 0.14 0.03 88 1005.1
20260507081823 49 45 2.0 5.0 0.03 0.14 0.03 88 1005.1
20260507080803 49 52 1.0 8.0 0.02 0.13 0.02 86 1004.8
20260507080541 49 48 2.0 9.0 0.02 0.13 0.02 85 1004.8
20260507080356 49 44 3.0 9.0 0.01 0.12 0.01 84 1005.1
20260507080313 49 48 2.0 9.0 0.02 0.13 0.02 85 1004.8
20260507075237 49 31 3.0 13.0 0.01 0.12 0.01 84 1005.2
20260507075026 50 28 3.0 13.0 0.01 0.12 0.01 84 1005.1
20260507074235 50 44 4.0 13.0 0.00 0.11 0.00 83 1004.9
20260507073744 51 40 4.0 13.0 0.00 0.11 0.00 81 1004.9
20260507073247 51 75 2.0 9.0 0.00 0.11 0.00 81 1004.7
20260507073127 51 110 3.0 9.0 0.00 0.11 0.00 79 1004.8
20260507072239 51 60 3.0 9.0 0.00 0.11 0.00 78 1004.8
20260507071753 51 50 4.0 9.0 0.00 0.11 0.00 78 1004.7
20260507071248 52 21 3.0 9.0 0.00 0.11 0.00 80 1004.5
20260507071005 52 62 2.0 5.0 0.00 0.11 0.00 81 1004.1
20260507070822 52 73 3.0 9.0 0.00 0.11 0.00 81 1004.1
20260507065948 52 70 2.0 9.0 0.00 0.11 0.00 81 1004.2
20260507065331 52 59 3.0 9.0 0.00 0.11 0.00 82 1004.2
20260507065234 52 92 2.0 8.0 0.00 0.11 0.00 82 1004.0
20260507064418 52 72 3.0 10.0 0.00 0.11 0.00 83 1004.2
20260507063553 53 82 3.0 10.0 0.00 0.11 0.00 85 1004.3
20260507063314 53 49 3.0 10.0 0.00 0.11 0.00 85 1004.2
20260507062208 53 12 3.0 10.0 0.00 0.11 0.00 86 1004.5
20260507061724 53 113 2.0 10.0 0.00 0.11 0.00 86 1004.4
20260507061208 53 42 3.0 10.0 0.00 0.11 0.00 86 1004.3
20260507060416 53 67 4.0 11.0 0.00 0.11 0.00 87 1004.2
20260507060242 53 92 3.0 11.0 0.00 0.11 0.00 87 1004.1
20260507055424 53 82 3.0 11.0 0.00 0.11 0.00 88 1004.3
20260507054847 54 36 4.0 9.0 0.00 0.11 0.00 90 1004.5
20260507054723 54 82 3.0 11.0 0.00 0.11 0.00 89 1004.5
20260507053643 54 77 4.0 11.0 0.00 0.11 0.00 91 1004.4
20260507053413 55 92 3.0 10.0 0.00 0.11 0.00 92 1004.5
20260507052652 55 10 3.0 8.0 0.00 0.11 0.00 92 1004.7
20260507052133 55 74 3.0 8.0 0.00 0.11 0.00 92 1004.9
20260507051627 55 67 3.0 7.0 0.00 0.11 0.00 93 1004.7
20260507051135 55 40 2.0 4.0 0.00 0.11 0.00 93 1004.5
20260507051114 56 72 1.0 6.0 0.00 0.11 0.00 94 1004.3
20260507051010 56 68 2.0 6.0 0.00 0.11 0.00 94 1004.3
20260507050739 55 5 2.0 6.0 0.00 0.11 0.00 93 1004.5
20260507050154 56 66 2.0 6.0 0.00 0.11 0.00 93 1004.4
20260507045836 56 55 2.0 7.0 0.00 0.11 0.00 93 1004.3
20260507045235 56 74 2.0 7.0 0.00 0.11 0.00 93 1004.3
20260507043616 56 11 2.0 5.0 0.00 0.11 0.00 94 1004.4
20260507043119 56 60 2.0 6.0 0.00 0.11 0.00 94 1004.4
20260507042622 56 63 2.0 6.0 0.00 0.11 0.00 94 1004.3
20260507042123 57 82 2.0 12.0 0.00 0.11 0.00 94 1004.3
20260507041617 57 78 2.0 12.0 0.00 0.11 0.00 94 1004.3
20260507041118 57 40 3.0 12.0 0.00 0.11 0.00 94 1004.3
20260507040621 57 29 3.0 12.0 0.00 0.11 0.00 94 1004.5
20260507040119 58 42 2.0 6.0 0.00 0.11 0.00 94 1004.3
20260507035601 58 75 2.0 4.0 0.00 0.11 0.11 95 1004.4
20260507035058 58 27 2.0 4.0 0.00 0.11 0.11 95 1004.4
20260507034602 58 6 2.0 5.0 0.00 0.11 0.11 95 1004.5
20260507034217 58 1 1.0 6.0 0.00 0.11 0.11 95 1004.4
20260507034134 58 21 2.0 5.0 0.00 0.11 0.11 95 1004.5
20260507033052 58 285 1.0 6.0 0.00 0.11 0.11 95 1004.4
20260507032916 58 92 1.0 5.0 0.00 0.11 0.11 95 1004.3
20260507032152 58 61 2.0 9.0 0.00 0.11 0.11 95 1004.2
20260507031646 58 6 2.0 9.0 0.00 0.11 0.11 95 1004.2
20260507030558 58 261 1.0 9.0 0.00 0.11 0.11 95 1004.0
20260507030333 58 4 1.0 7.0 0.00 0.11 0.11 95 1003.9
20260507030054 58 4 1.0 7.0 0.00 0.11 0.11 95 1003.9
20260507025558 58 302 2.0 7.0 0.00 0.11 0.11 95 1003.9
20260507025046 58 20 2.0 8.0 0.00 0.11 0.11 95 1003.9
20260507024549 58 223 2.0 8.0 0.00 0.11 0.11 95 1004.0
20260507024044 58 157 1.0 7.0 0.00 0.11 0.11 95 1004.0
20260507023550 58 334 2.0 8.0 0.00 0.11 0.11 95 1003.8
20260507023046 58 273 2.0 8.0 0.00 0.11 0.11 95 1003.7
20260507022541 58 303 2.0 6.0 0.00 0.11 0.11 95 1003.9
20260507022054 58 148 2.0 11.0 0.00 0.11 0.11 95 1003.9
20260507021544 57 92 2.0 11.0 0.00 0.11 0.11 95 1003.9
20260507021043 57 302 2.0 11.0 0.00 0.11 0.11 95 1003.9
20260507020826 57 337 2.0 11.0 0.00 0.11 0.11 95 1003.8
20260507020736 57 252 1.0 7.0 0.00 0.11 0.11 95 1003.9
20260507020511 57 183 1.0 6.0 0.00 0.11 0.11 95 1004.1
20260507020438 57 221 2.0 8.0 0.00 0.11 0.11 94 1004.1
20260507014612 57 324 1.0 8.0 0.00 0.11 0.11 94 1004.0
20260507014050 57 176 2.0 9.0 0.00 0.11 0.11 94 1003.9
20260507013543 57 202 2.0 9.0 0.00 0.11 0.11 94 1003.7
20260507013031 57 337 2.0 11.0 0.00 0.11 0.11 94 1003.9
20260507012529 57 251 2.0 11.0 0.00 0.11 0.11 94 1003.9
20260507012146 57 267 2.0 12.0 0.00 0.11 0.11 94 1004.1
20260507012104 57 269 2.0 12.0 0.00 0.11 0.11 94 1004.0
20260507011709 57 312 3.0 12.0 0.00 0.11 0.11 94 1004.2
20260507011026 57 267 2.0 12.0 0.00 0.11 0.11 94 1004.1
20260507010514 57 56 2.0 12.0 0.00 0.11 0.11 94 1004.2
20260507010235 57 298 3.0 13.0 0.00 0.11 0.11 94 1004.2
20260507005519 57 283 3.0 13.0 0.00 0.11 0.11 94 1004.3
20260507005006 57 325 3.0 9.0 0.00 0.11 0.11 94 1004.1
20260507004516 57 15 3.0 8.0 0.00 0.11 0.11 94 1004.2
20260507004000 57 310 2.0 10.0 0.01 0.11 0.11 94 1004.1
20260507003455 57 281 2.0 10.0 0.01 0.11 0.11 94 1004.3
20260507002954 57 25 1.0 9.0 0.01 0.11 0.11 94 1004.3
20260507002450 57 14 1.0 9.0 0.01 0.11 0.11 94 1004.2
20260507001939 57 237 2.0 10.0 0.02 0.11 0.11 94 1004.1
20260507001436 57 346 3.0 10.0 0.02 0.11 0.11 94 1004.0
20260507000935 58 221 3.0 8.0 0.02 0.11 0.11 94 1004.0
20260507000438 58 281 3.0 10.0 0.03 0.11 0.11 94 1003.9
20260506235922 58 259 3.0 10.0 0.03 0.11 0.11 94 1003.9
20260506235426 58 251 3.0 10.0 0.03 0.11 0.11 94 1003.8
20260506234924 58 314 2.0 15.0 0.03 0.11 0.11 94 1003.8
20260506234443 58 289 2.0 15.0 0.04 0.11 0.11 94 1003.8
20260506233920 58 283 3.0 8.0 0.03 0.10 0.10 94 1003.8
20260506233426 58 283 2.0 15.0 0.03 0.10 0.10 94 1003.8
20260506233048 58 262 3.0 17.0 0.01 0.08 0.08 93 1003.8
20260506233025 58 300 2.0 16.0 0.02 0.09 0.09 93 1003.7
20260506232936 58 272 2.0 7.0 0.03 0.10 0.10 94 1003.7
20260506232551 58 273 2.0 15.0 0.03 0.10 0.09 93 1003.7
20260506231946 58 312 2.0 15.0 0.02 0.09 0.09 93 1003.7
20260506231629 58 272 2.0 16.0 0.02 0.09 0.09 93 1003.6
20260506230146 58 276 3.0 17.0 0.01 0.08 0.08 93 1003.9
20260506225804 58 331 3.0 9.0 0.01 0.08 0.08 93 1003.8
20260506225657 58 203 2.0 9.0 0.01 0.08 0.08 93 1003.9
20260506224650 58 215 3.0 9.0 0.00 0.07 0.07 93 1003.9
20260506224133 58 275 3.0 9.0 0.02 0.07 0.07 92 1004.1
20260506224050 58 283 2.0 9.0 0.00 0.07 0.07 93 1003.8
20260506223954 58 295 2.0 7.0 0.00 0.07 0.07 93 1003.9
20260506223355 59 10 2.0 8.0 0.02 0.07 0.07 92 1004.1
20260506223200 58 256 3.0 9.0 0.01 0.07 0.07 93 1003.8
20260506223151 58 327 3.0 9.0 0.01 0.07 0.07 93 1003.8
20260506223015 58 292 2.0 9.0 0.01 0.07 0.07 93 1003.9
20260506221524 58 111 3.0 9.0 0.01 0.07 0.07 93 1003.9
20260506220449 58 298 3.0 9.0 0.02 0.07 0.07 92 1004.2
20260506220119 59 26 2.0 9.0 0.02 0.07 0.07 92 1004.2
20260506214857 59 267 2.0 10.0 0.02 0.07 0.07 92 1004.2
20260506214438 59 269 3.0 16.0 0.02 0.07 0.07 92 1004.2
20260506214356 59 261 2.0 9.0 0.02 0.07 0.07 92 1004.2
20260506213353 59 302 3.0 16.0 0.02 0.07 0.07 92 1004.2
20260506212851 59 323 4.0 13.0 0.01 0.06 0.06 92 1004.4
20260506212351 59 237 4.0 13.0 0.01 0.06 0.06 91 1004.4
20260506211915 59 320 3.0 11.0 0.02 0.06 0.06 91 1004.5
20260506211836 59 310 3.0 10.0 0.02 0.06 0.05 91 1004.6
20260506211101 59 286 2.0 10.0 0.01 0.05 0.05 91 1004.5
20260506210342 59 246 2.0 10.0 0.01 0.05 0.05 91 1004.5
20260506205832 59 356 3.0 10.0 0.01 0.05 0.05 91 1004.4
20260506205623 59 183 3.0 8.0 0.01 0.05 0.05 91 1004.6
20260506205339 59 257 3.0 8.0 0.01 0.05 0.05 91 1004.6
20260506204957 59 263 3.0 8.0 0.01 0.05 0.05 91 1004.6
20260506203821 59 264 3.0 9.0 0.01 0.05 0.05 90 1004.7
20260506203335 59 219 2.0 9.0 0.02 0.05 0.05 90 1004.6
20260506202829 59 296 2.0 10.0 0.02 0.05 0.05 90 1004.8
20260506202324 59 320 2.0 10.0 0.03 0.05 0.04 90 1004.8
20260506201821 59 352 2.0 10.0 0.02 0.04 0.04 90 1004.9
20260506201608 60 305 2.0 8.0 0.02 0.04 0.04 89 1004.9
20260506201407 60 304 2.0 10.0 0.02 0.04 0.04 89 1004.9
20260506200545 60 345 3.0 10.0 0.03 0.04 0.04 89 1004.9
20260506195812 60 218 3.0 9.0 0.03 0.04 0.04 88 1004.8
20260506195317 60 271 3.0 11.0 0.03 0.04 0.04 88 1004.8
20260506194819 60 285 2.0 11.0 0.04 0.04 0.04 89 1004.8
20260506194304 60 282 2.0 7.0 0.04 0.04 0.04 88 1004.9
20260506193758 60 335 3.0 7.0 0.04 0.04 0.04 88 1004.7
20260506193258 60 268 2.0 7.0 0.03 0.03 0.03 87 1004.8
20260506192753 60 235 2.0 7.0 0.03 0.03 0.03 86 1004.9
20260506192305 61 279 2.0 14.0 0.02 0.02 0.02 85 1005.2
20260506192029 61 293 2.0 14.0 0.02 0.02 0.02 85 1005.1
20260506191306 61 251 3.0 14.0 0.02 0.02 0.02 84 1005.1
20260506190758 61 27 2.0 14.0 0.02 0.02 0.02 82 1005.1
20260506190318 62 279 3.0 11.0 0.01 0.01 0.01 81 1005.2
20260506190036 62 202 4.0 12.0 0.01 0.01 0.01 79 1005.2
20260506185720 64 308 3.0 12.0 0.00 0.00 0.00 76 1005.3
20260506185627 63 271 3.0 12.0 0.01 0.01 0.00 77 1005.3
20260506184252 64 318 3.0 12.0 0.00 0.00 0.00 74 1005.4
20260506183740 65 168 3.0 12.0 0.00 0.00 0.00 73 1005.3
20260506183245 65 121 2.0 12.0 0.00 0.00 0.00 72 1005.3
20260506182743 66 260 3.0 12.0 0.00 0.00 0.00 72 1005.3